Ainsworth, NE

8:33 PM CST on December 14, 2019 (GMT -0600)
Ainsworth Municipal

Weather History for KANW - November, 2019

Change the Weather History Date:

Thursday, November 14, 2019

  Actual Average Record
Temperature  
Mean Temperature 39 °F -  
Max Temperature 54 °F 46 °F 70 °F (2015)
Min Temperature 24 °F 25 °F 2 °F (2014)
Degree Days  
Heating Degree Days 26    
Moisture  
Dew Point 31 °F    
Average Humidity 85    
Maximum Humidity 100    
Minimum Humidity 48    
Precipitation  
Precipitation 0.00 in - - ()
Sea Level Pressure  
Sea Level Pressure 30.24 in    
Wind  
Wind Speed 5 mph ()    
Max Wind Speed 9 mph    
Max Gust Speed -    
Visibility 10.0 miles    
Events      
Averages and records for this station are not official NWS values.
T = Trace of Precipitation, MM = Missing Value Source: Averaged Metar Reports

Daily Weather History Graph

Daily Weather History Graph

Search for Another Location

Airport or City:

Astronomy

Nov. 14, 2019 Rise Set
Actual Time 7:29 AM CST 5:18 PM CST
Civil Twilight 6:59 AM CST 5:48 PM CST
Nautical Twilight 6:25 AM CST 6:22 PM CST
Astronomical Twilight 5:52 AM CST 6:55 PM CST
Moon 7:03 PM CST (11/14) 9:28 AM CST (11/14)
Length of Visible Light 10h 49m
Length of Day
9h 48m
Waning Gibbous, 95% of the Moon is Illuminated
Nov 14
Waning Gibbous
Nov 19
Last Quarter
Nov 26
New
Dec 4
First Quarter
Dec 11
Full

Hourly Weather History & Observations

Time (CST) Temp. Windchill Dew Point Humidity Pressure Visibility Wind Dir Wind Speed Gust Speed Precip Events Conditions
12:15 AM 29.3 °F 23.2 °F 29.3 °F 100% 30.19 in 10.0 mi WNW 5.8 mph - N/A   Clear
12:35 AM 30.4 °F 25.6 °F 30.4 °F 100% 30.19 in 10.0 mi NW 4.6 mph - N/A   Clear
12:55 AM 28.8 °F 25.0 °F 28.8 °F 100% 30.19 in 10.0 mi NW 3.5 mph - N/A   Clear
1:15 AM 29.5 °F 25.9 °F 29.5 °F 100% 30.19 in 10.0 mi NW 3.5 mph - N/A   Clear
1:35 AM 28.0 °F 22.8 °F 28.0 °F 100% 30.20 in 10.0 mi WNW 4.6 mph - N/A   Clear
1:55 AM 29.3 °F 23.2 °F 29.3 °F 100% 30.21 in 10.0 mi NW 5.8 mph - N/A   Clear
2:15 AM 27.9 °F 22.6 °F 27.9 °F 100% 30.22 in 10.0 mi WNW 4.6 mph - N/A   Clear
2:35 AM 27.7 °F 21.3 °F 27.7 °F 100% 30.22 in 10.0 mi West 5.8 mph - N/A   Scattered Clouds
2:55 AM 27.5 °F 22.2 °F 27.5 °F 100% 30.23 in 10.0 mi West 4.6 mph - N/A   Scattered Clouds
3:15 AM 27.5 °F 22.2 °F 27.5 °F 100% 30.22 in 10.0 mi West 4.6 mph - N/A   Clear
3:35 AM 27.7 °F 20.4 °F 27.7 °F 100% 30.23 in 10.0 mi West 6.9 mph - N/A   Clear
3:55 AM 27.7 °F 21.3 °F 27.7 °F 100% 30.24 in 10.0 mi West 5.8 mph - N/A   Clear
4:15 AM 27.5 °F 21.1 °F 27.5 °F 100% 30.24 in 10.0 mi West 5.8 mph - N/A   Clear
4:35 AM 28.0 °F 22.8 °F 28.0 °F 100% 30.24 in 10.0 mi West 4.6 mph - N/A   Clear
4:55 AM 27.5 °F 22.2 °F 27.5 °F 100% 30.24 in 10.0 mi West 4.6 mph - N/A   Clear
5:15 AM 26.8 °F 19.3 °F 26.8 °F 100% 30.25 in 10.0 mi West 6.9 mph - N/A   Clear
5:35 AM 26.2 °F 17.8 °F 26.2 °F 100% 30.25 in 10.0 mi West 8.1 mph - N/A   Clear
5:55 AM 26.2 °F 18.6 °F 26.2 °F 100% 30.25 in 10.0 mi West 6.9 mph - N/A   Clear
6:15 AM 25.7 °F 18.0 °F 25.7 °F 100% 30.26 in 10.0 mi West 6.9 mph - N/A   Clear
6:35 AM 26.4 °F 18.0 °F 26.4 °F 100% 30.26 in 10.0 mi West 8.1 mph - N/A   Clear
6:55 AM 26.1 °F 18.4 °F 26.1 °F 100% 30.26 in 10.0 mi WSW 6.9 mph - N/A   Clear
7:15 AM 25.7 °F 19.0 °F 25.7 °F 100% 30.27 in 10.0 mi West 5.8 mph - N/A   Clear
7:35 AM 24.8 °F 17.9 °F 24.8 °F 100% 30.27 in 10.0 mi WSW 5.8 mph - N/A   Clear
7:55 AM 26.2 °F 19.6 °F 26.2 °F 100% 30.27 in 10.0 mi West 5.8 mph - N/A   Clear
8:15 AM 28.4 °F 22.2 °F 28.4 °F 100% 30.27 in 10.0 mi WSW 5.8 mph - N/A   Clear
8:35 AM 30.2 °F 22.6 °F 30.2 °F 100% 30.28 in 10.0 mi West 8.1 mph - N/A   Clear
8:55 AM 32.0 °F 24.8 °F 32.0 °F 100% 30.28 in 10.0 mi West 8.1 mph - N/A   Clear
9:15 AM 33.6 °F 26.8 °F 33.3 °F 99% 30.30 in 10.0 mi West 8.1 mph - N/A   Clear
9:35 AM 35.4 °F 29.7 °F 34.2 °F 95% 30.30 in 10.0 mi West 6.9 mph - N/A   Clear
9:55 AM 37.9 °F 33.5 °F 35.4 °F 91% 30.30 in 10.0 mi West 5.8 mph - N/A   Clear
10:15 AM 40.1 °F 36.9 °F 34.3 °F 80% 30.30 in 10.0 mi West 4.6 mph - N/A   Clear
10:35 AM 42.1 °F 37.7 °F 35.2 °F 77% 30.29 in 10.0 mi West 6.9 mph - N/A   Clear
11:15 AM 45.5 °F 41.3 °F 35.6 °F 68% 30.29 in 10.0 mi West 8.1 mph - N/A   Clear
11:35 AM 46.6 °F - 35.4 °F 65% 30.29 in 10.0 mi West 6.9 mph - N/A   Clear
11:55 AM 48.6 °F - 36.9 °F 64% 30.29 in 10.0 mi NW 5.8 mph - N/A   Clear
12:15 PM 49.3 °F - 35.6 °F 59% 30.28 in 10.0 mi West 9.2 mph - N/A   Clear
12:35 PM 50.4 °F - 35.2 °F 56% 30.26 in 10.0 mi West 8.1 mph - N/A   Clear
1:15 PM 51.6 °F - 35.2 °F 54% 30.24 in 10.0 mi West 8.1 mph - N/A   Clear
1:35 PM 52.2 °F - 35.4 °F 53% 30.24 in 10.0 mi West 6.9 mph - N/A   Clear
2:15 PM 53.6 °F - 36.0 °F 51% 30.23 in 10.0 mi West 8.1 mph - N/A   Clear
2:35 PM 53.8 °F - 35.8 °F 51% 30.23 in 10.0 mi WSW 5.8 mph - N/A   Clear
2:55 PM 54.3 °F - 35.2 °F 49% 30.23 in 10.0 mi West 5.8 mph - N/A   Clear
3:15 PM 54.3 °F - 34.7 °F 48% 30.23 in 10.0 mi WNW 6.9 mph - N/A   Clear
3:35 PM 53.8 °F - 34.9 °F 49% 30.22 in 10.0 mi WNW 8.1 mph - N/A   Clear
3:55 PM 53.8 °F - 34.5 °F 48% 30.22 in 10.0 mi West 3.5 mph - N/A   Clear
4:15 PM 54.0 °F - 34.5 °F 48% 30.22 in 10.0 mi Calm Calm - N/A   Clear
4:35 PM 53.1 °F - 34.2 °F 49% 30.22 in 10.0 mi Calm Calm - N/A   Clear
4:55 PM 51.6 °F - 34.2 °F 51% 30.22 in 10.0 mi Calm Calm - N/A   Clear
5:35 PM 43.9 °F - 33.3 °F 66% 30.22 in 10.0 mi Calm Calm - N/A   Clear
5:55 PM 42.6 °F - 32.9 °F 68% 30.22 in 10.0 mi Calm Calm - N/A   Clear
6:15 PM 41.2 °F - 32.9 °F 72% 30.22 in 10.0 mi Calm Calm - N/A   Clear
6:35 PM 37.4 °F 34.9 °F 32.2 °F 81% 30.22 in 10.0 mi SSE 3.5 mph - N/A   Clear
6:55 PM 36.9 °F 32.2 °F 32.0 °F 83% 30.22 in 10.0 mi South 5.8 mph - N/A   Clear
7:15 PM 37.0 °F 33.3 °F 32.0 °F 82% 30.23 in 10.0 mi South 4.6 mph - N/A   Clear
7:35 PM 35.2 °F 30.3 °F 32.0 °F 88% 30.23 in 10.0 mi South 5.8 mph - N/A   Clear
7:55 PM 34.9 °F 29.0 °F 32.0 °F 89% 30.22 in 10.0 mi South 6.9 mph - N/A   Clear
8:35 PM 33.8 °F 26.4 °F 31.6 °F 92% 30.22 in 10.0 mi South 9.2 mph - N/A   Clear
9:15 PM 33.8 °F 26.4 °F 32.0 °F 93% 30.22 in 10.0 mi South 9.2 mph - N/A   Clear
9:35 PM 35.1 °F 28.6 °F 32.5 °F 91% 30.22 in 10.0 mi South 8.1 mph - N/A   Clear
9:55 PM 34.3 °F 28.4 °F 32.5 °F 93% 30.22 in 10.0 mi South 6.9 mph - N/A   Clear
10:15 PM 33.1 °F 26.9 °F 32.0 °F 96% 30.21 in 10.0 mi South 6.9 mph - N/A   Clear
10:35 PM 33.4 °F 27.3 °F 32.2 °F 95% 30.21 in 10.0 mi South 6.9 mph - N/A   Clear
10:55 PM 31.3 °F 25.6 °F 30.4 °F 96% 30.21 in 10.0 mi South 5.8 mph - N/A   Clear
11:15 PM 32.2 °F 26.7 °F 31.5 °F 97% 30.21 in 10.0 mi South 5.8 mph - N/A   Clear
11:35 PM 31.8 °F 25.4 °F 30.9 °F 96% 30.21 in 10.0 mi South 6.9 mph - N/A   Clear
11:55 PM 31.6 °F 26.0 °F 30.6 °F 96% 30.21 in 10.0 mi SSW 5.8 mph - N/A   Clear